Location: Seattle
(47.6064°N, 122.3308°W)
Time: 05:01:38
(UTC-08:00)

CZ-6A DEB - Visible Passes

Search period start: 08 December 2023 00:00
Search period end: 18 December 2023 00:00
Orbit: 687 x 836 km, 98.7° (Epoch: 06 December)

Date Brightness Start Highest point End Pass type
(mag) Time Alt. Az. Time Alt. Az. Time Alt. Az.
08 Dec ? 06:09:29 10° NE 06:13:53 27° E 06:18:06 10° SSE visible
08 Dec ? 17:25:54 10° SE 17:31:12 54° ENE 17:36:30 10° N visible
08 Dec ? 19:05:57 10° SSW 19:10:21 25° W 19:14:49 10° NW visible
09 Dec ? 05:33:26 10° ENE 05:35:39 13° E 05:37:50 10° ESE visible
09 Dec ? 16:49:09 10° ESE 16:53:45 29° ENE 16:58:21 10° N visible
09 Dec ? 18:27:06 10° S 18:32:22 50° W 18:37:41 10° NNW visible
10 Dec ? 06:32:35 10° NNE 06:37:31 42° E 06:42:12 10° S visible
10 Dec ? 17:49:08 10° SSE 17:54:34 82° ENE 18:00:03 10° NNW visible
10 Dec ? 19:30:47 10° SW 19:34:05 16° W 19:37:25 10° NW visible
11 Dec ? 05:55:38 10° NE 05:59:24 20° E 06:03:02 10° SE visible
11 Dec ? 17:11:53 10° SE 17:16:59 42° ENE 17:22:04 10° N visible
11 Dec ? 18:51:05 10° SSW 18:55:56 33° W 19:00:49 10° NNW visible
12 Dec ? 06:55:50 10° NNE 07:00:59 67° ESE 07:05:54 10° S visible
12 Dec ? 18:12:34 10° S 18:18:00 66° WSW 18:23:25 10° NNW visible
13 Dec ? 06:18:28 10° NNE 06:23:00 31° E 06:27:21 10° SSE visible
13 Dec ? 17:34:52 10° SSE 17:40:14 64° ENE 17:45:36 10° N visible
13 Dec ? 19:15:26 10° SW 19:19:32 21° W 19:23:37 10° NW visible
14 Dec ? 05:41:57 10° NE 05:44:45 15° E 05:47:28 10° ESE visible
14 Dec ? 16:57:54 10° SE 17:02:41 33° ENE 17:07:27 10° N visible
14 Dec ? 18:36:16 10° S 18:41:26 43° W 18:46:34 10° NNW visible
15 Dec ? 06:41:31 10° NNE 06:46:27 49° E 06:51:10 10° S visible
15 Dec ? 17:58:04 10° SSE 18:03:32 86° WSW 18:08:58 10° NNW visible
15 Dec ? 19:40:31 10° WSW 19:43:09 14° W 19:45:46 10° WNW visible
16 Dec ? 06:04:20 10° NE 06:08:20 23° E 06:12:10 10° SE visible
16 Dec ? 17:20:37 10° SE 17:25:49 49° ENE 17:30:59 10° N visible
16 Dec ? 19:00:16 10° SSW 19:04:53 28° W 19:09:29 10° NW visible
17 Dec ? 05:29:18 10° ENE 05:29:57 10° E 05:30:37 10° E visible
17 Dec ? 07:04:41 10° NNE 07:09:46 79° ESE 07:14:36 10° S visible
17 Dec ? 16:43:55 10° ESE 16:48:18 26° ENE 16:52:38 10° N visible
17 Dec ? 18:21:30 10° S 18:26:51 56° W 18:32:08 10° NNW visible
